QPF
0.00 0.00 0.00 0.00 0.00 0.00 0.00 0.00 0.00 0.00 0.00 0.00 0.00 0.00 0.00 0.00 0.00 0.00 0.00 0.00 0.00 0.00 0.00 0.00 0.00 0.00 0.00 0.00 0.00 0.00 0.00 0.00 0.00 0.00 0.00 0.00 0.00 0.00 0.00 0.00 0.00 0.00 0.00 0.00 0.00
0.00 0.00 0.00 0.00 0.00 0.00 0.00 0.00 0.00 0.00 0.00 0.00 0.00 0.00 0.00 0.00 0.00 0.00 0.00 0.00 0.00 0.00 0.00 0.00 0.00 0.00 0.00 0.00 0.00 0.00 0.00 0.00 0.00 0.00 0.00 0.00 0.00 0.00 0.00 0.00 0.00 0.00 0.00 0.00 0.00
0.00 0.00 0.00 0.00 0.00 0.00 0.00 0.00 0.00 0.00 0.00 0.00 0.00 0.00 0.00 0.00 0.00 0.00 0.00 0.00 0.00 0.00 0.00 0.00 0.00 0.00 0.00 0.00 0.00 0.00 0.00 0.00 0.00 0.00 0.00 0.00 0.00 0.00 0.00 0.00 0.00 0.00 0.00 0.00 0.00
0.00 0.00 0.00 0.00 0.00 0.00 0.00 0.00 0.00 0.00 0.00 0.00 0.00 0.00 0.00 0.00 0.00 0.00 0.00 0.00 0.00 0.00 0.00 0.00 0.00 0.00 0.00 0.00 0.00 0.00 0.00 0.00 0.00 0.00 0.00 0.00 0.00 0.00 0.00 0.00 0.00 0.00 0.00 0.00 0.00
0.00 0.00 0.00 0.00 0.00 0.00 0.00 0.00 0.00 0.00 0.00 0.00 0.00 0.00 0.00 0.00 0.00 0.00 0.00 0.00 0.00 0.00 0.00 0.00 0.00 0.00 0.00 0.00 0.00 0.00 0.00 0.00 0.00 0.00 0.00 0.00 0.00 0.00 0.00 0.00 0.00 0.00 0.00 0.00 0.00
0.00 0.00 0.00 0.00 0.00 0.00 0.00 0.00 0.00 0.00 0.00 0.00 0.00 0.00 0.00 0.00 0.00 0.00 0.00 0.00 0.00 0.00 0.00 0.00 0.00 0.00 0.00 0.00 0.00 0.00 0.00 0.00 0.00 0.00 0.00 0.00 0.00 0.00 0.00 0.00 0.00 0.00 0.00 0.00 0.00
0.00 0.00 0.00 0.00 0.00 0.00 0.00 0.00 0.00 0.00 0.00 0.00 0.00 0.00 0.00 0.00 0.00 0.00 0.00 0.00 0.00 0.00 0.00 0.00 0.00 0.00 0.00 0.00 0.00 0.00 0.00 0.00 0.00 0.00 0.00 0.00 0.00 0.00 0.00 0.00 0.00 0.00 0.00 0.00 0.00
0.00 0.00 0.00 0.00 0.00 0.00 0.00 0.00 0.00 0.00 0.00 0.00 0.00 0.00 0.00 0.00 0.00 0.00 0.00 0.00 0.00 0.00 0.00 0.00 0.00 0.00 0.00 0.00 0.00 0.00 0.00 0.00 0.00 0.00 0.00 0.00 0.00 0.00 0.00 0.00 0.00 0.00 0.00 0.00 0.00
0.00 0.00 0.00 0.00 0.00 0.00 0.00 0.00 0.00 0.00 0.00 0.00 0.00 0.00 0.00 0.00 0.00 0.00 0.00 0.00 0.00 0.00 0.00 0.00 0.00 0.00 0.00 0.00 0.00 0.00 0.00 0.00 0.00 0.00 0.00 0.00 0.00 0.00 0.00 0.00 0.00 0.00 0.00 0.00 0.00
0.00 0.00 0.00 0.00 0.00 0.00 0.00 0.00 0.00 0.00 0.00 0.00 0.00 0.00 0.00 0.00 0.00 0.00 0.00 0.00 0.00 0.00 0.00 0.00 0.00 0.00 0.00 0.00 0.00 0.00 0.00 0.00 0.00 0.00 0.00 0.00 0.00 0.00 0.00 0.00 0.00 0.00 0.00 0.00 0.00
0.00 0.00 0.00 0.00 0.00 0.00 0.00 0.00 0.00 0.00 0.00 0.00 0.00 0.00 0.00 0.00 0.00 0.00 0.00 0.00 0.00 0.00 0.00 0.00 0.00 0.00 0.00 0.00 0.00 0.00 0.00 0.00 0.00 0.00 0.00 0.00 0.00 0.00 0.00 0.00 0.00 0.00 0.00 0.00 0.00
0.00 0.00 0.00 0.00 0.00 0.00 0.00 0.00 0.00 0.00 0.00 0.00 0.00 0.00 0.00 0.00 0.00 0.00 0.00 0.00 0.00 0.00 0.00 0.00 0.00 0.00 0.00 0.00 0.00 0.00 0.00 0.00 0.00 0.00 0.00 0.00 0.00 0.00 0.00 0.00 0.00 0.00 0.00 0.00 0.00
0.00 0.00 0.00 0.00 0.00 0.00 0.00 0.00 0.00 0.00 0.00 0.00 0.00 0.00 0.00 0.00 0.00 0.00 0.00 0.00 0.00 0.00 0.00 0.00 0.00 0.00 0.00 0.00 0.00 0.00 0.00 0.00 0.00 0.00 0.00 0.00 0.00 0.00 0.00 0.00 0.00 0.00 0.00 0.00 0.00
0.00 0.00 0.00 0.00 0.00 0.00 0.00 0.00 0.00 0.00 0.00 0.00 0.00 0.00 0.00 0.00 0.00 0.00 0.00 0.00 0.00 0.00 0.00 0.00 0.00 0.00 0.00 0.00 0.00 0.00 0.00 0.00 0.00 0.00 0.00 0.00 0.00 0.00 0.00 0.00 0.00 0.00 0.00 0.00 0.00
0.00 0.00 0.00 0.00 0.00 0.00 0.00 0.00 0.00 0.00 0.00 0.00 0.00 0.00 0.00 0.00 0.00 0.01 0.01 0.00 0.00 0.00 0.00 0.00 0.00 0.00 0.00 0.00 0.00 0.00 0.00 0.00 0.00 0.00 0.00 0.00 0.00 0.00 0.00 0.00 0.00 0.00 0.00 0.00 0.00
0.00 0.00 0.00 0.00 0.00 0.00 0.00 0.00 0.00 0.00 0.00 0.00 0.00 0.00 0.00 0.00 0.00 0.00 0.00 0.00 0.01 0.00 0.00 0.00 0.00 0.00 0.00 0.00 0.00 0.00 0.00 0.00 0.00 0.00 0.00 0.00 0.00 0.00 0.00 0.00 0.00 0.00 0.00 0.00 0.00
0.00 0.00 0.00 0.00 0.00 0.00 0.00 0.00 0.00 0.00 0.00 0.00 0.00 0.00 0.00 0.00 0.00 0.00 0.00 0.00 0.01 0.01 0.00 0.00 0.00 0.00 0.00 0.00 0.00 0.00 0.00 0.00 0.00 0.00 0.00 0.00 0.00 0.00 0.00 0.00 0.00 0.00 0.00 0.00 0.00
0.00 0.00 0.00 0.00 0.00 0.00 0.00 0.00 0.00 0.00 0.00 0.00 0.00 0.00 0.00 0.00 0.00 0.00 0.00 0.00 0.00 0.01 0.00 0.00 0.00 0.00 0.00 0.00 0.00 0.00 0.00 0.00 0.00 0.00 0.00 0.00 0.00 0.00 0.00 0.00 0.00 0.00 0.00 0.00 0.00
0.00 0.00 0.00 0.00 0.00 0.00 0.00 0.00 0.00 0.00 0.00 0.00 0.00 0.00 0.00 0.00 0.00 0.00 0.00 0.00 0.00 0.01 0.01 0.01 0.00 0.00 0.00 0.00 0.00 0.00 0.00 0.00 0.00 0.00 0.00 0.00 0.00 0.00 0.00 0.00 0.00 0.00 0.00 0.00 0.00
0.00 0.00 0.00 0.00 0.00 0.00 0.00 0.00 0.00 0.00 0.00 0.01 0.01 0.00 0.00 0.00 0.00 0.00 0.00 0.00 0.00 0.00 0.00 0.00 0.00 0.00 0.00 0.00 0.00 0.00 0.00 0.00 0.00 0.00 0.00 0.00 0.00 0.00 0.00 0.00 0.00 0.00 0.00 0.00 0.00
0.00 0.00 0.00 0.00 0.00 0.00 0.00 0.00 0.00 0.00 0.00 0.01 0.02 0.01 0.01 0.01 0.00 0.00 0.01 0.00 0.00 0.00 0.00 0.00 0.00 0.00 0.00 0.00 0.00 0.00 0.00 0.00 0.00 0.00 0.00 0.00 0.00 0.00 0.00 0.00 0.00 0.00 0.00 0.00 0.00
0.00 0.00 0.00 0.00 0.00 0.00 0.00 0.00 0.00 0.00 0.00 0.00 0.01 0.01 0.01 0.01 0.00 0.00 0.00 0.00 0.00 0.00 0.00 0.00 0.00 0.00 0.00 0.00 0.00 0.00 0.00 0.00 0.00 0.00 0.00 0.00 0.00 0.00 0.00 0.00 0.00 0.00 0.00 0.00 0.00
0.00 0.00 0.00 0.00 0.00 0.00 0.00 0.00 0.00 0.00 0.00 0.01 0.00 0.01 0.01 0.00 0.00 0.00 0.00 0.00 0.00 0.00 0.00 0.00 0.00 0.00 0.00 0.00 0.00 0.00 0.00 0.00 0.00 0.00 0.00 0.00 0.00 0.00 0.00 0.00 0.00 0.00 0.00 0.00 0.00
0.00 0.00 0.00 0.00 0.00 0.00 0.00 0.00 0.00 0.00 0.00 0.01 0.00 0.01 0.00 0.00 0.00 0.00 0.00 0.00 0.00 0.00 0.02 0.01 0.00 0.00 0.00 0.00 0.00 0.00 0.00 0.00 0.00 0.00 0.00 0.00 0.00 0.00 0.00 0.00 0.00 0.00 0.00 0.00 0.00
0.00 0.00 0.00 0.00 0.00 0.00 0.00 0.00 0.00 0.00 0.00 0.00 0.00 0.00 0.01 0.00 0.00 0.00 0.00 0.00 0.00 0.00 0.00 0.00 0.00 0.00 0.00 0.00 0.00 0.00 0.00 0.00 0.00 0.00 0.00 0.00 0.00 0.00 0.00 0.00 0.00 0.00 0.00 0.00 0.00
0.00 0.00 0.00 0.00 0.00 0.00 0.00 0.00 0.00 0.00 0.00 0.01 0.01 0.00 0.00 0.00 0.00 0.00 0.01 0.00 0.00 0.00 0.00 0.00 0.00 0.00 0.00 0.00 0.00 0.00 0.00 0.00 0.00 0.00 0.00 0.00 0.00 0.00 0.00 0.00 0.00 0.00 0.00 0.00 0.00
0.00 0.00 0.01 0.00 0.00 0.00 0.00 0.00 0.00 0.01 0.00 0.01 0.01 0.00 0.00 0.00 0.00 0.00 0.00 0.00 0.00 0.00 0.00 0.00 0.00 0.01 0.00 0.01 0.02 0.00 0.00 0.00 0.00 0.00 0.00 0.00 0.00 0.00 0.00 0.00 0.00 0.00 0.00 0.00 0.00
MSLP
1021.01 1020.64 1020.25 1019.87 1019.58 1019.23 1018.88 1018.64 1018.03 1017.37 1017.08 1016.78 1016.65 1016.42 1016.02 1015.33 1014.59 1014.14 1013.27 1010.59 1010.23 1009.64 1009.30 1009.12 1009.04 1009.40 1009.63 1009.81 1009.51 1009.82 1010.26 1010.11 1008.39 1007.58 1006.57 1004.78 1003.73 1002.66 1002.62 1002.90 1002.63 1002.75 1002.33 1001.86 1001.72
1020.91 1020.53 1020.15 1019.72 1019.25 1018.83 1018.47 1018.04 1017.63 1017.30 1016.86 1016.38 1016.27 1016.02 1015.75 1015.46 1014.71 1013.33 1010.25 1009.87 1010.01 1009.83 1009.55 1009.15 1008.90 1009.30 1009.67 1009.51 1009.33 1009.53 1009.49 1008.70 1007.04 1006.93 1006.14 1005.23 1004.80 1003.92 1003.18 1003.03 1003.21 1002.89 1002.55 1002.03 1002.20
1021.08 1020.66 1020.20 1019.76 1019.34 1018.95 1018.51 1017.95 1017.44 1016.99 1016.56 1016.30 1016.17 1015.83 1015.70 1015.08 1014.21 1010.50 1009.28 1009.61 1009.86 1009.42 1009.40 1009.15 1008.97 1008.87 1009.27 1009.08 1008.91 1008.63 1007.95 1007.46 1006.32 1006.45 1006.23 1005.74 1005.27 1004.86 1005.08 1004.41 1003.80 1002.88 1002.66 1002.61 1002.53
1021.04 1020.58 1020.11 1019.67 1019.20 1018.73 1018.29 1017.89 1017.47 1016.94 1016.44 1016.13 1015.72 1015.74 1015.47 1014.95 1013.56 1009.46 1008.88 1009.10 1009.08 1008.28 1008.92 1008.99 1008.90 1008.84 1008.92 1008.61 1008.13 1007.98 1007.14 1006.88 1006.06 1006.25 1006.24 1005.78 1005.49 1005.26 1004.93 1003.69 1003.35 1003.12 1002.79 1002.53 1002.54
1021.12 1020.60 1020.05 1019.55 1019.06 1018.55 1018.06 1017.50 1017.04 1016.80 1016.53 1016.20 1016.08 1015.88 1015.24 1015.50 1013.01 1009.35 1009.44 1009.40 1008.98 1008.52 1008.91 1009.05 1008.79 1008.40 1008.26 1008.07 1008.06 1007.18 1006.72 1006.59 1006.22 1005.75 1005.61 1005.65 1005.02 1004.26 1003.81 1003.88 1003.21 1002.65 1002.32 1002.35 1002.33
1020.92 1020.36 1019.79 1019.24 1018.63 1018.01 1017.41 1016.93 1016.57 1016.27 1015.81 1015.62 1015.58 1015.61 1015.76 1014.83 1010.16 1009.85 1010.09 1009.80 1009.62 1009.43 1009.15 1009.02 1008.23 1007.91 1008.08 1007.81 1007.52 1006.40 1006.27 1006.34 1006.19 1005.76 1005.41 1005.52 1004.49 1004.26 1002.72 1002.73 1002.97 1002.42 1002.16 1001.84 1001.80
1020.92 1020.45 1019.85 1019.19 1018.48 1017.57 1016.65 1015.90 1015.48 1015.46 1014.98 1014.75 1015.00 1015.17 1014.82 1012.32 1010.52 1010.04 1010.31 1009.97 1009.75 1009.84 1009.56 1008.77 1008.29 1007.77 1007.46 1007.69 1007.14 1006.52 1006.52 1006.18 1005.49 1005.63 1005.39 1004.97 1003.53 1002.47 1002.68 1002.49 1001.86 1001.74 1001.81 1001.36 1001.02
1020.91 1020.36 1019.73 1019.03 1018.34 1017.55 1016.79 1015.96 1014.77 1014.26 1014.28 1014.32 1014.57 1014.76 1014.00 1010.94 1010.38 1010.07 1009.74 1009.11 1008.69 1008.91 1009.06 1008.21 1007.95 1007.90 1007.74 1007.52 1007.15 1006.88 1006.77 1006.18 1004.51 1005.31 1005.14 1005.25 1000.82 1001.41 1001.79 1001.95 1001.40 1001.14 1000.69 1000.46 1000.10
1020.83 1020.26 1019.62 1018.93 1018.26 1017.46 1016.47 1015.46 1014.12 1013.85 1013.75 1013.99 1014.38 1014.31 1012.21 1010.11 1009.87 1008.86 1009.39 1009.12 1008.56 1008.01 1007.88 1007.35 1007.43 1007.69 1007.82 1008.09 1008.14 1007.16 1006.35 1005.15 1005.16 1004.40 1004.60 1004.58 998.96 1001.65 1001.66 1001.68 1001.05 1000.75 1000.55 1000.18 999.98
1020.71 1020.13 1019.38 1018.60 1017.86 1017.14 1016.27 1015.18 1013.70 1013.68 1013.80 1013.90 1013.69 1014.00 1011.49 1010.00 1008.91 1008.15 1008.05 1008.53 1008.53 1007.98 1007.53 1007.26 1007.25 1007.59 1007.96 1007.88 1006.72 1006.57 1005.93 1005.72 1005.30 1004.66 1004.40 1003.63 1000.45 1001.68 1001.57 1001.29 1000.64 1000.57 1000.12 999.82 999.49
1020.53 1019.88 1019.14 1018.34 1017.59 1017.00 1016.28 1015.64 1014.92 1014.27 1013.82 1013.55 1012.67 1012.30 1010.77 1008.95 1008.32 1007.30 1007.50 1008.05 1008.32 1007.73 1007.50 1007.11 1007.43 1006.73 1006.37 1006.54 1006.67 1006.76 1006.53 1006.38 1005.36 1004.57 1004.22 1003.16 1001.61 1001.32 1001.64 1001.16 1000.38 1000.01 999.76 999.34 998.88
1020.23 1019.52 1018.65 1017.79 1017.18 1016.74 1016.72 1016.50 1015.68 1015.68 1014.26 1012.28 1011.79 1011.13 1009.43 1008.48 1008.08 1006.61 1006.91 1007.98 1008.05 1008.00 1007.69 1007.62 1006.33 1006.81 1006.82 1006.83 1006.96 1006.99 1006.85 1006.60 1006.16 1005.33 1004.85 1003.99 1001.85 1001.48 1001.17 1000.43 999.75 999.33 999.07 998.93 998.67
1019.89 1019.25 1018.47 1017.49 1016.74 1016.49 1016.65 1015.78 1015.12 1015.24 1014.91 1012.42 1010.97 1010.21 1008.50 1008.20 1007.94 1007.04 1007.57 1007.53 1008.08 1008.29 1007.85 1007.84 1006.96 1006.61 1006.84 1006.68 1006.72 1006.91 1006.86 1006.90 1006.74 1005.99 1004.74 1004.50 1001.82 1001.11 1000.04 999.62 999.02 998.29 998.25 998.16 998.20
1019.49 1018.82 1018.28 1017.43 1016.74 1017.03 1016.11 1015.04 1015.07 1015.19 1014.96 1012.46 1010.47 1009.24 1008.57 1008.09 1007.82 1006.98 1007.20 1007.88 1008.11 1008.00 1007.81 1007.53 1006.86 1006.58 1006.43 1006.18 1006.73 1006.70 1007.01 1006.94 1006.88 1006.90 1005.90 1005.01 1002.15 1000.72 999.25 998.91 998.50 997.98 997.75 997.69 997.48
1019.30 1018.63 1018.08 1017.93 1017.58 1017.10 1015.35 1015.09 1014.84 1015.16 1014.80 1012.28 1010.62 1009.40 1009.55 1009.07 1008.13 1007.32 1007.23 1007.41 1007.47 1007.58 1007.67 1006.92 1006.42 1006.11 1005.92 1005.88 1006.23 1006.21 1006.73 1006.95 1007.19 1006.92 1006.41 1005.55 1004.70 996.44 998.75 997.86 997.26 997.06 997.12 996.60 996.39
1019.00 1018.42 1017.97 1017.66 1017.70 1015.80 1015.26 1015.22 1015.18 1016.06 1014.71 1012.99 1011.87 1011.25 1010.30 1009.50 1008.54 1007.65 1007.02 1007.14 1006.84 1006.77 1006.53 1006.67 1006.00 1005.91 1005.78 1005.65 1005.75 1006.08 1006.46 1006.75 1007.13 1007.41 1006.64 1005.22 1004.93 996.61 998.04 996.91 996.75 996.40 996.32 996.15 996.14
1018.17 1017.54 1017.49 1017.13 1016.25 1015.36 1015.23 1015.69 1016.26 1016.07 1015.42 1014.20 1013.05 1012.08 1011.20 1010.16 1009.22 1008.53 1007.88 1007.77 1007.60 1007.11 1006.81 1006.51 1006.28 1005.52 1005.40 1005.66 1005.57 1005.91 1006.55 1007.11 1007.80 1007.54 1005.05 1004.08 1003.79 997.55 997.29 996.23 996.44 996.27 996.09 995.95 995.82
1017.37 1016.57 1016.36 1015.87 1015.30 1015.43 1015.81 1016.35 1016.81 1016.57 1015.69 1014.67 1013.71 1012.69 1011.71 1010.99 1010.09 1009.41 1008.74 1008.36 1007.63 1007.73 1008.06 1007.83 1006.70 1005.37 1004.81 1004.94 1005.15 1005.46 1006.27 1006.29 1006.20 1006.16 1004.83 1004.04 1000.92 997.56 996.34 995.60 995.07 995.31 995.29 995.51 995.64
1016.78 1016.63 1016.46 1015.12 1015.17 1015.55 1016.50 1017.28 1017.34 1016.49 1015.56 1014.47 1013.72 1013.16 1012.49 1011.77 1011.35 1010.47 1009.60 1008.82 1008.41 1008.35 1008.26 1007.79 1006.77 1005.59 1005.09 1004.81 1005.15 1005.43 1005.76 1005.82 1006.27 1005.78 1005.34 1002.64 999.55 997.47 995.73 994.80 995.21 994.95 995.14 995.03 995.28
1017.87 1017.41 1016.30 1015.11 1015.04 1016.03 1017.09 1017.59 1016.89 1015.96 1015.02 1014.41 1014.26 1013.86 1013.28 1012.50 1011.81 1011.08 1010.04 1009.29 1008.86 1008.79 1008.91 1008.50 1007.74 1006.68 1005.67 1005.29 1005.03 1005.18 1005.40 1005.98 1006.43 1006.07 1004.97 1002.05 999.74 996.98 995.48 994.44 994.84 994.87 995.16 995.17 995.73
1018.01 1017.42 1015.90 1015.41 1015.52 1016.95 1017.86 1017.63 1016.38 1015.31 1014.81 1014.42 1014.12 1013.92 1013.43 1012.92 1012.30 1011.42 1010.50 1009.74 1009.43 1009.23 1008.96 1008.82 1008.84 1008.07 1006.96 1006.09 1005.63 1005.65 1005.65 1005.82 1005.78 1005.56 1004.39 1002.38 998.09 996.07 995.60 995.37 995.35 994.78 994.32 994.78 995.77
1019.01 1018.07 1016.05 1015.59 1016.97 1018.22 1018.32 1017.54 1016.36 1015.07 1014.46 1014.06 1013.64 1013.62 1013.39 1013.10 1012.49 1011.71 1010.80 1010.11 1009.39 1009.56 1009.70 1009.84 1009.63 1009.05 1007.64 1006.47 1006.06 1006.15 1005.85 1006.09 1006.08 1005.36 1004.17 1002.61 997.84 995.41 995.69 995.50 995.48 994.73 994.15 994.86 995.84
1019.95 1018.93 1016.49 1016.19 1018.26 1018.95 1018.34 1017.39 1016.39 1015.39 1014.69 1014.37 1014.24 1013.55 1013.42 1013.25 1012.91 1011.62 1010.56 1009.69 1009.53 1009.61 1009.69 1009.87 1010.04 1009.73 1008.31 1007.40 1006.90 1006.82 1006.35 1006.16 1006.26 1005.83 1004.10 1002.52 998.25 996.29 996.13 995.85 995.64 995.25 995.44 995.43 996.17
1020.28 1019.76 1018.54 1018.52 1018.95 1019.21 1018.82 1017.50 1016.34 1015.41 1014.71 1014.62 1014.19 1013.62 1013.60 1013.17 1012.73 1011.77 1010.89 1010.01 1009.73 1009.61 1009.67 1009.97 1010.32 1010.25 1009.96 1008.81 1008.59 1008.07 1007.02 1006.54 1006.29 1005.72 1003.82 1000.59 999.96 996.95 997.25 996.83 996.26 995.92 996.24 996.88 996.19
1020.78 1020.89 1020.46 1020.00 1019.54 1019.33 1018.88 1017.72 1016.68 1015.72 1015.18 1014.57 1014.26 1013.81 1013.76 1012.85 1012.29 1011.57 1010.99 1010.62 1010.16 1009.97 1010.16 1010.44 1010.47 1010.16 1009.60 1009.16 1008.68 1008.00 1007.11 1006.36 1005.66 1005.06 1004.08 1001.88 1000.27 998.33 998.30 996.94 996.26 996.18 996.04 996.95 996.76
1021.72 1021.74 1020.85 1020.46 1019.55 1018.76 1018.10 1017.25 1016.57 1015.77 1015.46 1014.65 1014.19 1013.61 1013.21 1012.64 1011.90 1010.84 1010.78 1010.47 1010.62 1010.37 1010.46 1010.52 1010.56 1010.03 1009.35 1008.79 1008.05 1007.23 1006.05 1005.42 1004.76 1004.07 1003.36 1002.34 999.54 998.45 997.28 996.54 996.00 995.14 995.47 996.03 997.04
1022.03 1021.72 1021.49 1020.23 1019.46 1018.91 1017.97 1017.06 1016.60 1016.14 1015.10 1014.47 1013.97 1013.07 1012.21 1011.37 1010.94 1010.29 1009.81 1009.69 1009.81 1010.10 1010.16 1010.31 1010.32 1009.98 1008.42 1007.97 1007.26 1005.40 1003.80 1003.78 1003.42 1002.99 1002.38 1001.30 999.14 998.38 997.35 996.64 996.04 995.46 995.14 995.16 996.36
Thickness
5604 5607 5610 5612 5614 5616 5619 5620 5626 5631 5634 5638 5640 5643 5648 5655 5665 5670 5681 5706 5709 5717 5724 5727 5729 5725 5724 5722 5730 5727 5697 5697 5727 5735 5745 5769 5772 5797 5802 5790 5797 5797 5797 5809 5817
5600 5603 5606 5610 5613 5616 5619 5622 5625 5626 5630 5633 5634 5638 5642 5645 5653 5663 5693 5698 5700 5703 5711 5713 5715 5713 5704 5711 5715 5706 5689 5710 5746 5748 5747 5757 5763 5774 5775 5777 5777 5785 5801 5810 5810
5593 5596 5599 5602 5605 5608 5611 5616 5620 5623 5625 5626 5627 5630 5632 5639 5645 5674 5688 5686 5687 5696 5703 5706 5708 5705 5696 5705 5706 5706 5705 5733 5747 5746 5744 5745 5747 5766 5751 5749 5770 5779 5789 5795 5797
5588 5590 5593 5596 5598 5601 5604 5607 5610 5614 5618 5619 5623 5622 5624 5631 5641 5671 5678 5679 5681 5693 5690 5692 5692 5688 5685 5693 5709 5697 5718 5729 5744 5741 5737 5738 5745 5738 5746 5764 5781 5784 5789 5791 5792
5582 5585 5587 5590 5592 5595 5597 5600 5603 5604 5605 5606 5608 5610 5617 5612 5627 5659 5664 5666 5671 5677 5673 5673 5673 5682 5678 5690 5695 5697 5715 5716 5725 5734 5735 5736 5735 5745 5749 5763 5778 5784 5788 5787 5786
5578 5580 5583 5586 5589 5593 5596 5598 5599 5599 5601 5601 5601 5600 5600 5600 5639 5645 5643 5649 5652 5656 5658 5660 5669 5677 5672 5678 5685 5705 5706 5705 5710 5717 5726 5718 5732 5737 5761 5775 5765 5775 5776 5783 5785
5574 5576 5578 5581 5584 5589 5594 5597 5598 5596 5598 5598 5595 5594 5597 5604 5627 5628 5626 5632 5636 5639 5642 5652 5657 5659 5666 5665 5679 5690 5678 5690 5703 5704 5703 5721 5718 5734 5757 5763 5767 5770 5769 5776 5783
5569 5571 5574 5576 5578 5581 5584 5587 5593 5594 5591 5588 5584 5581 5583 5607 5613 5615 5620 5624 5628 5630 5634 5642 5644 5644 5648 5658 5665 5669 5668 5663 5704 5698 5702 5701 5714 5748 5757 5751 5756 5763 5773 5778 5785
5562 5564 5567 5569 5570 5573 5577 5581 5587 5584 5582 5576 5570 5566 5571 5596 5598 5607 5605 5606 5615 5622 5626 5632 5633 5631 5636 5630 5628 5644 5648 5664 5679 5702 5695 5688 5727 5733 5746 5743 5748 5756 5759 5766 5774
5556 5558 5560 5562 5563 5564 5566 5570 5575 5568 5564 5558 5556 5550 5565 5573 5581 5591 5593 5592 5593 5599 5607 5608 5611 5607 5610 5615 5626 5639 5653 5659 5655 5676 5685 5684 5711 5722 5729 5732 5736 5739 5750 5758 5765
5552 5554 5555 5556 5557 5556 5557 5554 5553 5550 5547 5544 5545 5538 5542 5556 5558 5567 5565 5568 5571 5578 5578 5590 5580 5603 5628 5633 5634 5630 5631 5631 5653 5667 5672 5681 5695 5710 5712 5717 5729 5738 5745 5754 5764
5548 5549 5551 5553 5552 5549 5544 5537 5534 5528 5522 5536 5526 5520 5524 5526 5523 5537 5534 5536 5543 5544 5558 5561 5582 5605 5612 5607 5612 5614 5614 5619 5634 5652 5653 5661 5682 5694 5702 5715 5728 5735 5739 5748 5755
5544 5545 5545 5548 5547 5542 5533 5532 5528 5519 5503 5515 5521 5516 5526 5524 5515 5518 5508 5515 5517 5521 5533 5538 5572 5589 5585 5586 5595 5598 5602 5612 5614 5632 5652 5646 5667 5682 5707 5714 5729 5739 5744 5748 5748
5542 5542 5540 5541 5540 5528 5527 5529 5519 5507 5475 5506 5514 5513 5518 5519 5510 5518 5509 5502 5505 5510 5518 5529 5557 5564 5563 5577 5581 5579 5602 5612 5611 5610 5610 5642 5634 5675 5712 5715 5718 5732 5740 5742 5750
5537 5536 5535 5529 5524 5519 5529 5521 5512 5496 5460 5504 5505 5512 5503 5502 5509 5512 5510 5507 5505 5510 5508 5525 5542 5544 5552 5570 5574 5586 5595 5597 5601 5603 5608 5622 5610 5720 5705 5709 5726 5737 5737 5749 5757
5533 5533 5528 5524 5516 5524 5520 5512 5500 5469 5447 5490 5491 5483 5490 5494 5502 5508 5510 5510 5513 5513 5517 5521 5534 5535 5543 5557 5569 5585 5579 5588 5591 5588 5577 5626 5615 5699 5696 5715 5723 5731 5734 5744 5748
5535 5534 5526 5520 5519 5520 5513 5499 5476 5452 5479 5477 5472 5476 5479 5488 5492 5495 5498 5495 5494 5499 5503 5514 5518 5536 5544 5539 5558 5566 5556 5550 5551 5556 5602 5637 5624 5688 5705 5718 5719 5722 5731 5742 5750
5537 5537 5530 5525 5522 5513 5502 5486 5447 5474 5467 5475 5472 5473 5477 5478 5481 5486 5491 5489 5503 5503 5494 5493 5503 5529 5542 5542 5546 5550 5552 5548 5562 5575 5607 5634 5638 5677 5714 5725 5733 5736 5743 5743 5748
5537 5532 5525 5527 5517 5508 5487 5457 5450 5464 5470 5471 5472 5462 5464 5473 5468 5477 5481 5488 5495 5494 5498 5501 5513 5528 5537 5543 5546 5546 5544 5571 5566 5585 5590 5618 5658 5690 5718 5731 5728 5733 5740 5744 5746
5524 5518 5518 5520 5513 5496 5473 5468 5465 5469 5472 5468 5444 5451 5450 5461 5460 5464 5475 5487 5489 5493 5489 5498 5499 5516 5528 5535 5543 5544 5558 5547 5546 5564 5578 5616 5640 5667 5701 5722 5724 5729 5734 5739 5736
5518 5514 5520 5514 5506 5478 5450 5456 5470 5473 5468 5463 5453 5445 5456 5456 5463 5462 5475 5482 5485 5486 5489 5490 5487 5502 5516 5521 5525 5533 5537 5546 5560 5567 5578 5602 5638 5686 5703 5710 5710 5728 5741 5737 5733
5500 5509 5514 5509 5479 5455 5448 5466 5471 5472 5468 5464 5464 5456 5456 5454 5453 5462 5471 5478 5486 5483 5475 5476 5470 5477 5504 5520 5527 5525 5535 5537 5539 5571 5581 5597 5643 5700 5702 5703 5712 5731 5740 5735 5731
5495 5487 5505 5499 5448 5442 5456 5466 5464 5463 5460 5458 5450 5462 5457 5449 5445 5463 5474 5484 5484 5482 5477 5477 5466 5466 5486 5505 5511 5511 5527 5534 5539 5550 5571 5589 5631 5687 5690 5694 5707 5719 5723 5729 5725
5492 5485 5482 5472 5460 5457 5449 5457 5459 5464 5459 5456 5450 5454 5448 5446 5448 5453 5465 5479 5480 5479 5484 5476 5458 5469 5455 5483 5484 5487 5512 5526 5531 5533 5577 5614 5622 5672 5672 5675 5694 5709 5711 5711 5723
5480 5476 5468 5457 5455 5452 5446 5447 5454 5456 5453 5451 5444 5450 5446 5449 5454 5452 5459 5460 5469 5473 5467 5460 5459 5466 5474 5482 5482 5489 5501 5517 5529 5547 5558 5593 5611 5653 5652 5677 5689 5700 5707 5703 5713
5471 5463 5464 5454 5460 5465 5462 5460 5456 5455 5448 5446 5444 5444 5447 5445 5452 5458 5458 5448 5449 5452 5454 5461 5457 5467 5475 5484 5488 5482 5502 5516 5535 5550 5563 5579 5616 5649 5667 5681 5692 5707 5710 5708 5705
5465 5461 5458 5460 5456 5450 5454 5462 5452 5448 5448 5452 5449 5454 5454 5459 5460 5455 5454 5450 5448 5448 5447 5454 5459 5461 5476 5490 5482 5500 5519 5526 5542 5555 5568 5578 5627 5647 5657 5672 5688 5703 5712 5714 5708